Regional Weather Roundup
Issued by NWS

Home | Current Version | Previous Version | Text Only | Print | Product List | Glossary On
Versions: 1 2 3 4 5 6 7 8 9 10 11 12 13 14 15 16 17 18 19 20 21 22 23 24 25 26 27 28 29 30 31 32 33 34 35 36 37 38 39 40 41 42 43 44 45 46 47 48 49 50
000
ASUS45 KPSR 301410
RWRAZ

ARIZONA HOURLY REGIONAL WEATHER ROUNDUP
NATIONAL WEATHER SERVICE PHOENIX AZ
700 AM MST SAT JUL 30 2016

NOTE: FAIR INDICATES FEW OR NO CLOUDS BELOW 12,000 FEET WITH NO
SIGNIFICANT WEATHER AND/OR OBSTRUCTIONS TO VISIBILITY.

AZZ001>003-036-301500-
NORTHWEST ARIZONA

CITY           SKY/WX    TMP DP  RH WIND       PRES   REMARKS
KINGMAN        CLOUDY    74  62  66 SW15      30.01R
$$

AZZ004>008-015-016-018-301500-
NORTH CENTRAL ARIZONA

CITY           SKY/WX    TMP DP  RH WIND       PRES   REMARKS
GRAND CANYON   PTSUNNY   62  52  69 CALM      30.23S
WILLIAMS       CLOUDY    63  52  67 S7        30.32R
PRESCOTT       CLOUDY    71  57  61 CALM      30.12F
FLAGSTAFF      CLOUDY    60  53  77 SW6       30.27F
PAYSON         CLOUDY    68  57  68 CALM      30.17R
PAGE           PTSUNNY   85  45  24 NW3       29.99R
$$

AZZ009>014-017-301500-
NORTHEAST ARIZONA

CITY           SKY/WX    TMP DP  RH WIND       PRES   REMARKS
WINSLOW        CLOUDY    71  50  47 SE6       30.11S
SAINT JOHNS    MOSUNNY   67  50  54 SE5       30.18R
WINDOW ROCK    PTSUNNY   64  51  62 CALM      30.24R
SHOW LOW       PTSUNNY   66  46  48 SW8       30.25R
$$

AZZ023-301500-
GREATER PHOENIX AREA

CITY           SKY/WX    TMP DP  RH WIND       PRES   REMARKS
PHOENIX        PTSUNNY   85  66  53 CALM      29.86F
GLENDALE       PTSUNNY   86  64  48 CALM      29.88
LUKE AFB       PTSUNNY   86  63  45 E6        29.86S
DEER VALLEY    PTSUNNY   84  61  45 SE3       29.88S
SCOTTSDALE     PTSUNNY   83  65  54 CALM      29.90F
MESA-FALCON    PTSUNNY  N/A N/A N/A NE6       29.87F
MESA-GATEWAY   MOSUNNY   81  72  74 VRB5      29.91F
CHANDLER       PTSUNNY  N/A N/A N/A CALM      29.88
$$

AZZ027-028-301500-
SOUTHWEST MARICOPA COUNTY AND PINAL COUNTY

CITY           SKY/WX    TMP DP  RH WIND       PRES   REMARKS
CASA GRANDE    CLOUDY    79  70  73 NE5       29.93R
GILA BEND      FAIR      82  70  67 SW8       29.87S HAZE
$$

AZZ503-504-507>509-301500-
SOUTHEAST ARIZONA

CITY           SKY/WX    TMP DP  RH WIND       PRES   REMARKS
TUCSON         MOSUNNY   77  67  71 S9        29.99S
DAVIS-MONTHAN  PTSUNNY   76  67  75 S6        29.98S
RYAN FIELD     SUNNY     77  70  78 E6        29.99R
NOGALES        CLOUDY    72  65  78 S5        30.08S
SIERRA VISTA   PTSUNNY   70  58  66 VRB3      30.13R
DOUGLAS        PTSUNNY   72  63  73 SE9       30.10R
SAFFORD        PTSUNNY   76  59  55 CALM      30.01R
$$

AZZ020-021-025-026-031-301500-
SOUTHWEST ARIZONA

CITY           SKY/WX    TMP DP  RH WIND       PRES   REMARKS
YUMA           CLOUDY    81  74  79 N8        29.89R
$$

CAZ031-033-041-043-047-048-061-301500-
SOUTHERN CALIFORNIA

CITY           SKY/WX    TMP DP  RH WIND       PRES   REMARKS
DOWNTOWN L.A.  SUNNY     71  61  70 CALM      29.83R
L.A. AIRPORT   MOSUNNY   71  63  75 NW5       29.83S
SAN DIEGO      CLOUDY    68  65  90 S7        29.87R
BURBANK        SUNNY     71  62  73 W6        29.84S
ONTARIO        CLOUDY    75  62  64 E3        29.87R
RIVERSIDE      CLOUDY    74  64  71 CALM      29.87R
PALM SPRINGS   CLOUDY    90  67  46 E9        29.89R HAZE
EL CENTRO NAS  PTSUNNY   87  72  60 E16       29.85R HAZE
IMPERIAL       MOSUNNY   88  74  63 E16       29.83R
BLYTHE         TSTM      76  75  97 S9        29.91R
NEEDLES        CLOUDY    87  64  46 W23G30    29.85F
$$

NVZ020-UTZ003-301500-
SOUTHERN NEVADA-UTAH

CITY           SKY/WX    TMP DP  RH WIND       PRES   REMARKS
LAS VEGAS      MOSUNNY   86  58  38 SE7       29.86R
SALT LAKE CITY MOSUNNY   78  45  30 S8        29.96R
$$

NMZ009-TXZ055-301500-
NEW MEXICO-WEST TEXAS

CITY           SKY/WX    TMP DP  RH WIND       PRES   REMARKS
ALBUQUERQUE    CLOUDY    68  55  63 N6        30.18S
EL PASO        MOSUNNY   77  61  57 SE7       30.08R
$$


........................KEY........................
SKY/WX - SKY CONDITION/WEATHER
TMP    - TEMPERATURE IN FAHRENHEIT
DP     - DEW POINT IN FAHRENHEIT
RH     - RELATIVE HUMIDITY IN PERCENT
WIND   - DIRECTION AND SPEED IN MILES PER HOUR (MPH)
VRB    - VARIABLE WIND DIRECTION
PRES   - MEAN SEA LEVEL PRESSURE IN INCHES OF MERCURY
         F - FALLING PRESSURE   R - RISING PRESSURE
         S - STEADY PRESSURE
VSB    - VISIBILITY IN MILES
HX     - HEAT INDEX IN FAHRENHEIT
WCI    - WIND CHILL INDEX IN FAHRENHEIT
TC     - TEMPERATURE IN CELSIUS WHICH IS ALSO KNOWN AS
         TEMPERATURE IN CENTIGRADE
AFB    - AIR FORCE BASE
         LUKE AFB IS LUKE AIR FORCE BASE
         DAVIS-MONTHAN IS DAVIS-MONTHAN AIR FORCE BASE
NAS    - NAVAL AIR STATION
         EL CENTRO NAS IS EL CENTRO NAVAL AIR STATION
N/A    - NOT AVAILABLE




USA.gov is the U.S. government's official web portal to all federal, state and local government web resources and services.